NOAA 16 DEB, 41252

Orbit data source: Space-Track

NOAA 16 DEB, 41252 is space debris in SSO originally from a launch on Thu, 21 Sep 2000 UTC launched from the Air Force Western Test Range (AFWTR). Debris objects in space refer to the collection of defunct objects orbiting the Earth. Examples of debris include non-operational satellites, rocket bodies, and fragments generated from explosions, collisions, or faulty payload assembly.

Loading next visibility...
Identifier
41252, 2000-055FC
Orbit
SSO
Country
Flag of USUS
Related business
Manufacturer
Unknown
Mission
Spacecraft
Bus & Motor
Unknown
Mass
Unknown
Launch date (UTC)
2000-09-21 (26 years ago)
Launch vehicle
Unknown
Launch site
Air Force Western Test Range (AFWTR)
Object type
Payload
Rocket body
Debris
Shape & HBR
Unknown shape, 0.1 m
Radar Cross Section
Medium (>0.1 m² and <1 m²)

Expand to show TLE details & history
Last TLE update: 23 hours ago

TLE from 23 hours ago
0 NOAA 16 DEB
1 41252U 00055FC  26206.43036892  .00003976  00000-0  18432-2 0  9990
2 41252  98.9240 273.8486 0048569 229.6401 130.0530 14.20692656545223
Epoch: 2026-07-25T10:19Z
TLE epoch observation values (Epoch: 2026-07-25T10:19:43.874Z)
Latitude
0.00002°
Longitude
175.77303°
Altitude
848.53 km
Speed
7.417 km/s
True Right ascension
18h 15m 23s
True Declination
0° 00' 00"
Sunlit
Object was in full shadow at epoch
Visualization orbit readout
Latitude
Unknown
Longitude
Unknown
Altitude
Unknown
Speed
Unknown
Apparent Right ascension
Unknown
Apparent Declination
Unknown
Sunlit
N/A
Visualization observer readout
Local Sidereal Time
22:39:47
Azimuth
Unknown
Elevation
Unknown
Doppler factor
Unknown
Orbital elements
Apogee altitude
855.141 km
Perigee altitude
785.218 km
Semi-major axis
7,198.316 km
Eccentricity
0.00486
Inclination
98.924°
RAAN
273.8486°
Arg. of periapsis
229.6401°
True anomaly
130.47736°
Mean anomaly
130.053°
Eccentric anomaly
130.26534°
Mean motion
3.55383 °/min
Orbital period
101.3 mins
BSTAR
0.0018432
Loading maneuver chart data...
Computing Atmospheric mass density...
Loading historical data...
Loading historical data...
Loading historical data...
Loading historical data...
Loading historical data...
Loading historical data...
Loading historical data...

Documentation

Showing up to 5 results
|